Weather Roundup
Issued by NWS Chicago, IL

Home | Current Version | Previous Version | Text Only | Print | Product List | Glossary Off
Versions: 1 2 3 4 5 6 7 8 9 10 11 12 13 14 15 16 17 18 19 20 21 22 23 24 25 26 27 28 29 30 31 32 33 34 35 36 37 38 39 40 41 42 43 44 45 46 47 48 49 50

000
NZUS59 KLOT 230306
HRRLOT

CHICAGO AREA WEATHER ROUNDUP
NATIONAL WEATHER SERVICE CHICAGO/ROMEOVILLE IL
1000 PM CDT MON SEP 22 2014

NOTE: "FAIR" INDICATES FEW OR NO CLOUDS BELOW 12,000 FEET WITH NO
SIGNIFICANT WEATHER AND/OR OBSTRUCTIONS TO VISIBILITY.

* THESE STATIONS ARE NOT UNDER NWS QUALITY CONTROL. THEY ALSO MAY NOT
  REPORT WEATHER SUCH AS PRECIPITATION OR FOG.

ILZ005-006-012>014-019>023-230400-
NORTHEAST ILLINOIS

CITY           SKY/WX    TMP DP  RH WIND       PRES   REMARKS
OHARE          CLEAR     57  46  66 S6        30.26R
MIDWAY         CLEAR     59  44  57 S6        30.26R
AURORA         CLEAR     48  44  86 CALM      30.27R
LANSING*       CLEAR     50  46  84 CALM      30.27R
JOLIET*        CLEAR     49  47  94 CALM      30.27S
WAUKEGAN         N/A     50  48  93 SW3       30.24R
DUPAGE AIRPORT CLEAR     52  48  86 CALM      30.25R
WHEELING       CLEAR     54  46  74 SE3       30.27R
KANKAKEE*      CLEAR     49  47  93 CALM      30.28S
MORRIS*        CLEAR     53  47  80 CALM      30.26S
LEWIS AIRPORT* CLEAR     51  46  85 SE3       30.27R
NORTHERLY IS     N/A     57  42  57 S3          N/A
$$

WIZ051-052-058>065-066-070>072-230400-
SOUTHEAST WISCONSIN

CITY           SKY/WX    TMP DP  RH WIND       PRES   REMARKS
MILWAUKEE      CLEAR     55  47  74 SE3       30.24R
KENOSHA*       CLEAR     51  47  86 S3        30.24R
RACINE*        CLEAR     52  49  89 SW3       30.25S
BURLINGTON     CLEAR     46  46  99 CALM      30.24S
WAUKESHA       CLEAR     52  45  76 SW5       30.24S
WEST BEND      CLEAR     50  46  87 CALM      30.23R
$$

INZ001>003-010>013-019-020-230400-
NORTHWEST INDIANA

CITY           SKY/WX    TMP DP  RH WIND       PRES   REMARKS
GARY*          CLEAR     47  45  93 CALM      30.28R
MICHIGAN CITY* NOT AVBL
RENSSELAER*    NOT AVBL
VALPARAISO     CLEAR     48  44  86 CALM      30.29R
$$

LMZ740>746-230400-
SOUTHERN LAKE MICHIGAN

STATION/POSITION TIME  SKY/WX   TEMP WIND        PRES    VSBY
                                AIR  DIR/SP/G
                 (UTC)          (F)  (DEG/KT/KT) (MB)    (MI)
HARRISON CRIB    NOT AVBL
BURNHAM HARBOR   0300            57  160/  4/  4   N/A
CALUMET HARBOR   0300            57  170/  4/  5 1023.5R
BURNS HARBOR     NOT AVBL
MICHIGAN CITY    NOT AVBL
$$

ABBREVIATIONS USED IN REMARKS
   TC - TEMPERATURE IN CELSIUS
  WCI - WIND CHILL INDEX
   HX - HEAT INDEX
  VSB - VISIBILITY
$$



USA.gov is the U.S. government's official web portal to all federal, state and local government web resources and services.